Change the Weather History Date:

Saturday, February 23, 2013

  Actual Average Record
Temperature  
Mean Temperature 52 °F 60 °F  
Max Temperature 70 °F 76 °F 93 °F (1954)
Min Temperature 33 °F 43 °F 30 °F (1975)
Degree Days  
Heating Degree Days 13 6  
Month to date heating degree days 206 178  
Since 1 July heating degree days 1033 1038  
Cooling Degree Days 0 1  
Month to date cooling degree days 0 3  
Year to date cooling degree days 0 5  
Growing Degree Days 2 (Base 50)    
Moisture  
Dew Point 29 °F    
Average Humidity 48    
Maximum Humidity 76    
Minimum Humidity 20    
Precipitation  
Precipitation 0.00 in 0.02 in 0.51 in (2005)
Month to date precipitation T 0.54  
Year to date precipitation 0.37 1.21  
Since 1 July precipitation 2.55  
Snow  
Snow 0.00 in - - ()
Month to date snowfall 0.0  
Year to date snowfall 0.0  
Since 1 July snowfall 0.0  
Snow Depth 0.00 in    
Sea Level Pressure  
Sea Level Pressure 29.95 in    
Wind  
Wind Speed 4 mph (West)    
Max Wind Speed 12 mph    
Max Gust Speed 15 mph    
Visibility 10 miles    
Events      
T = Trace of Precipitation, MM = Missing Value Source: NWS Daily Summary

Daily Weather History Graph

Daily Weather History Graph

Search for Another Location

Airport or City:

Trip Planner

Search our weather history database for the weather conditions in past years. The results will help you decide how hot, cold, wet, or windy it might be!

Date:

Astronomy

Feb. 23, 2013 Rise Set
Actual Time 6:19 AM PST 5:36 PM PST
Civil Twilight 5:54 AM PST 6:01 PM PST
Nautical Twilight 5:25 AM PST 6:30 PM PST
Astronomical Twilight 4:56 AM PST 6:59 PM PST
Moon 3:53 PM PST (2/23) 4:41 AM PST (2/23)
Length of Visible Light 12h 07m
Length of Day
11h 16m
Waxing Gibbous, 96% of the Moon is Illuminated
Feb 23
Waxing Gibbous
Feb 25
Full
Mar 4
Last Quarter
Mar 11
New
Mar 19
First Quarter

Hourly Weather History & Observations

Time (PST) Temp. Windchill Dew Point Humidity Pressure Visibility Wind Dir Wind Speed Gust Speed Precip Events Conditions
12:52 AM 37.9 °F - 28.0 °F 68% 30.12 in 10.0 mi Calm Calm - N/A   Clear
1:52 AM 37.9 °F - 27.0 °F 65% 30.10 in 10.0 mi Calm Calm - N/A   Clear
2:52 AM 34.0 °F 28.8 °F 26.1 °F 73% 30.09 in 10.0 mi NW 5.8 mph - N/A   Clear
3:52 AM 39.0 °F 35.7 °F 28.9 °F 67% 30.07 in 10.0 mi NNE 4.6 mph - N/A   Clear
4:52 AM 37.0 °F - 28.9 °F 73% 30.05 in 10.0 mi Calm Calm - N/A   Clear
5:52 AM 36.0 °F 33.3 °F 28.9 °F 76% 30.05 in 10.0 mi NW 3.5 mph - N/A   Clear
6:52 AM 37.0 °F - 30.9 °F 79% 30.04 in 10.0 mi Calm Calm - N/A   Clear
7:52 AM 48.0 °F - 32.0 °F 54% 30.04 in 10.0 mi Calm Calm - N/A   Clear
8:52 AM 55.9 °F - 26.1 °F 32% 30.05 in 10.0 mi Calm Calm - N/A   Clear
9:52 AM 60.1 °F - 30.0 °F 32% 30.03 in 10.0 mi Variable 5.8 mph - N/A   Clear
10:52 AM 64.0 °F - 30.9 °F 29% 30.00 in 10.0 mi Variable 6.9 mph - N/A   Clear
11:52 AM 66.9 °F - 30.0 °F 25% 29.95 in 10.0 mi SSE 6.9 mph - N/A   Clear
12:52 PM 69.1 °F - 27.0 °F 21% 29.89 in 10.0 mi SSE 10.4 mph - N/A   Clear
1:52 PM 69.1 °F - 27.0 °F 21% 29.85 in 10.0 mi SSE 9.2 mph - N/A   Clear
2:52 PM 70.0 °F - 27.0 °F 20% 29.81 in 10.0 mi SSE 8.1 mph - N/A   Clear
3:52 PM 70.0 °F - 27.0 °F 20% 29.78 in 10.0 mi South 4.6 mph - N/A   Clear
4:52 PM 66.9 °F - 28.0 °F 23% 29.77 in 10.0 mi South 3.5 mph - N/A   Clear
5:52 PM 61.0 °F - 30.9 °F 32% 29.78 in 10.0 mi Variable 3.5 mph - N/A   Clear
6:52 PM 55.9 °F - 30.0 °F 37% 29.82 in 10.0 mi Calm Calm - N/A   Clear
7:52 PM 63.0 °F - 34.0 °F 34% 29.85 in 10.0 mi West 8.1 mph - N/A   Clear
8:52 PM 62.1 °F - 34.0 °F 35% 29.87 in 10.0 mi NW 11.5 mph - N/A   Clear
9:52 PM 61.0 °F - 37.0 °F 41% 29.91 in 10.0 mi NW 12.7 mph - N/A   Clear
10:52 PM 59.0 °F - 32.0 °F 36% 29.94 in 10.0 mi NW 8.1 mph - N/A   Clear
11:52 PM 60.1 °F - 14.0 °F 16% 29.97 in 7.0 mi NW 12.7 mph - N/A   Overcast